Regional Weather Roundup
Issued by NWS

Home | Current Version | Previous Version | Graphics & Text | Print | Product List | Glossary On
Versions: 1 2 3 4 5 6 7 8 9 10 11 12 13 14 15 16 17 18 19 20 21 22 23 24 25 26 27 28 29 30 31 32 33 34 35 36 37 38 39 40 41 42 43 44 45 46 47 48 49 50
560
ASUS44 KJAN 220110
RWRMS

MISSISSIPPI HOURLY WEATHER ROUNDUP
NATIONAL WEATHER SERVICE JACKSON MS
800 PM CDT THU AUG 21 2014

NOTE: "FAIR: INDICATES FEW OR NO CLOUDS BELOW 12,000 FEET WITH NO
SIGNIFICANT WEATHER AND/OR OBSTRUCTIONS TO VISIBILITY.

MSZ001>002-007>008-010>013-018>021-025>028-034>036-220200-
NORTHWEST MISSISSIPPI

CITY           SKY/WX    TMP DP  RH WIND       PRES   REMARKS
CLARKSDALE     FAIR      84  77  79 CALM      30.06R HX  94
CLEVELAND      FAIR      85  78  80 CALM      30.05S HX  97
GREENWOOD      CLEAR     85  74  69 SW9       30.08R HX  92
GREENVILLE     PTCLDY    85  76  74 S7        30.06R HX  94
GRENADA        FAIR      86  72  62 SW3       30.08R HX  92
OLIVE BRANCH   PTCLDY    82  79  89 S7        30.06R HX  93
OXFORD         FAIR      84  73  70 CALM      30.09R HX  91
TUNICA         CLEAR     84  73  70 S7        30.06R HX  91
$$

MSZ003>006-009-014>017-022>024-029>033-037>039-220200-
NORTHEAST MISSISSIPPI

CITY           SKY/WX    TMP DP  RH WIND       PRES   REMARKS
BELMONT        FAIR      81  76  83 S3        30.08R
COLUMBUS AFB   CLEAR     84  76  74 CALM      30.07R HX  93
CORINTH        FAIR      82  72  69 S5        30.06R
GOLDN TRIANGLE PTCLDY    86  73  66 S7        30.09R HX  93
STARKVILLE     FAIR      81  72  74 CALM      30.09R
TUPELO         CLEAR     87  72  60 W3        30.07R HX  93
$$

MSZ040-058-220200-
CENTRAL MISSISSIPPI

CITY           SKY/WX    TMP DP  RH WIND       PRES   REMARKS
JACKSON INTL   TSTM      76  73  91 E8        30.14F
JACKSON HAWKNS LGT RAIN  78  73  84 E3        30.14R
MERIDIAN KEY   CLEAR     83  73  72 S5        30.09S
MERIDIAN NAS   PTCLDY    85  73  67 SW3       30.09R HX  91
RAYMOND        FAIR      73  68  83 E5        30.12S
VICKSBURG      LGT RAIN  77  74  90 E3        30.10R
$$

MSZ059>079-220200-
SOUTH MISSISSIPPI

CITY           SKY/WX    TMP DP  RH WIND       PRES   REMARKS
BROOKHAVEN     DRIZZLE   73  73 100 CALM      30.13F
HATTIESBURG    MOCLDY    80  76  87 CALM      30.11S
MCCOMB         CLOUDY    81  74  79 NE3       30.12R
NATCHEZ        CLOUDY    79  72  78 CALM      30.11F
PINE BELT      MOCLDY    84  70  61 NW5       30.14S
$$

MSZ080>082-220200-
COASTAL MISSISSIPPI

CITY           SKY/WX    TMP DP  RH WIND       PRES   REMARKS
BILOXI         PTCLDY    85  75  70 W3        30.11R HX  94
PASCAGOULA     PTCLDY    83  76  79 CALM      30.11R HX  91
GULFPORT       PTCLDY    86  75  69 CALM      30.10R HX  95
$$



USA.gov is the U.S. government's official web portal to all federal, state and local government web resources and services.